Location: Unspecified
(40.7945°N, 0.0000°E)
Time: 14:36:21
(UTC+00:00)

METEOR M2 - Pass Details

Date: 04 August 2020
Orbit: 819 x 827 km, 98.5° (Epoch: 23 September)

Event Time Altitude Azimuth Distance (km) Brightness Sun altitude
Rises 20:39:25 0° 207° (SSW) 3,350 ? -15.0°
Reaches altitude 10° 20:42:29 10° 225° (SW) 2,421 ? -15.5°
Maximum altitude 20:46:08 18° 268° (W) 1,900 ? -16.0°
Drops below altitude 10° 20:49:48 10° 311° (NW) 2,429 ? -16.5°
Sets 20:52:55 0° 330° (NNW) 3,366 ? -17.0°
